Wetterdaten: Montag, 27.04.2015
Datum Zeit Auen-Temp. Temp gefhlt Luftfeuchte Luftdruck Regen Wind Richtung Richtung Taupunkt Windben
27.04.2015 00:00 9,2 C 9,0 C 78 % 1005,1 hPa 0,0 mm 0,0 km/h (0 Bft) NW 315 5,6 C 0,0 km/h (0 Bft)
27.04.2015 00:05 8,7 C 8,6 C 78 % 1005,1 hPa 0,0 mm 0,0 km/h (0 Bft) NW 315 5,1 C 0,0 km/h (0 Bft)
27.04.2015 00:10 8,4 C 8,3 C 78 % 1005,1 hPa 0,0 mm 0,0 km/h (0 Bft) SW 225 4,8 C 0,0 km/h (0 Bft)
27.04.2015 00:15 8,2 C 8,0 C 78 % 1005,0 hPa 0,0 mm 0,0 km/h (0 Bft) S 180 4,6 C 0,0 km/h (0 Bft)
27.04.2015 00:20 8,8 C 8,4 C 79 % 1005,0 hPa 0,0 mm 0,0 km/h (0 Bft) SO 135 5,4 C 0,0 km/h (0 Bft)
27.04.2015 00:25 9,3 C 8,8 C 75 % 1005,0 hPa 0,0 mm 0,0 km/h (0 Bft) O 90 5,1 C 0,0 km/h (0 Bft)
27.04.2015 00:30 9,4 C 9,1 C 75 % 1005,0 hPa 0,0 mm 0,3 km/h (0 Bft) O 90 5,2 C 2,6 km/h (1 Bft)
27.04.2015 00:35 9,5 C 9,1 C 77 % 1004,9 hPa 0,0 mm 0,3 km/h (0 Bft) NO 45 5,7 C 0,0 km/h (0 Bft)
27.04.2015 00:40 8,8 C 8,6 C 76 % 1004,9 hPa 0,0 mm 0,3 km/h (0 Bft) O 90 4,8 C 0,0 km/h (0 Bft)
27.04.2015 00:45 9,2 C 8,8 C 77 % 1004,9 hPa 0,0 mm 0,0 km/h (0 Bft) O 90 5,4 C 0,0 km/h (0 Bft)
27.04.2015 00:50 9,5 C 9,1 C 76 % 1004,9 hPa 0,0 mm 0,0 km/h (0 Bft) O-SO 112 5,5 C 0,0 km/h (0 Bft)
27.04.2015 00:55 9,5 C 9,2 C 76 % 1004,7 hPa 0,0 mm 0,3 km/h (0 Bft) O-NO 67 5,5 C 3,4 km/h (1 Bft)
27.04.2015 01:00 9,1 C 8,9 C 75 % 1004,7 hPa 0,0 mm 0,3 km/h (0 Bft) S-SO 157 4,9 C 0,0 km/h (0 Bft)
27.04.2015 01:05 8,8 C 8,7 C 75 % 1004,7 hPa 0,0 mm 0,3 km/h (0 Bft) O 90 4,6 C 0,0 km/h (0 Bft)
27.04.2015 01:10 8,8 C 8,7 C 75 % 1004,7 hPa 0,0 mm 0,0 km/h (0 Bft) NO 45 4,6 C 0,0 km/h (0 Bft)
27.04.2015 01:15 9,2 C 8,9 C 75 % 1004,8 hPa 0,0 mm 0,0 km/h (0 Bft) W-SW 247 5,0 C 0,0 km/h (0 Bft)
27.04.2015 01:20 8,8 C 8,6 C 75 % 1004,8 hPa 0,0 mm 1,6 km/h (1 Bft) S-SO 157 4,6 C 7,5 km/h (2 Bft)
27.04.2015 01:25 8,9 C 8,7 C 75 % 1004,8 hPa 0,0 mm 1,8 km/h (1 Bft) NO 45 4,7 C 11,4 km/h (2 Bft)
27.04.2015 01:30 8,9 C 8,6 C 75 % 1004,8 hPa 0,0 mm 3,6 km/h (1 Bft) S-SW 202 4,7 C 15,3 km/h (3 Bft)
27.04.2015 01:35 8,8 C 8,6 C 75 % 1004,6 hPa 0,0 mm 4,9 km/h (1 Bft) O 90 4,6 C 17,1 km/h (3 Bft)
27.04.2015 01:40 9,5 C 9,3 C 73 % 1004,6 hPa 0,0 mm 3,4 km/h (1 Bft) O 90 4,9 C 0,0 km/h (0 Bft)
27.04.2015 01:45 8,7 C 8,7 C 72 % 1004,6 hPa 0,0 mm 0,8 km/h (0 Bft) O-NO 67 3,9 C 0,0 km/h (0 Bft)
27.04.2015 01:50 8,5 C 8,4 C 73 % 1004,6 hPa 0,0 mm 0,5 km/h (0 Bft) O 90 3,9 C 3,1 km/h (1 Bft)
27.04.2015 01:55 8,6 C 8,4 C 72 % 1004,4 hPa 0,0 mm 0,8 km/h (0 Bft) S-SO 157 3,8 C 0,0 km/h (0 Bft)
27.04.2015 02:00 8,8 C 8,6 C 73 % 1004,4 hPa 0,0 mm 1,3 km/h (1 Bft) S-SO 157 4,2 C 0,0 km/h (0 Bft)
27.04.2015 02:05 8,0 C 7,9 C 73 % 1004,4 hPa 0,0 mm 1,0 km/h (0 Bft) N-NW 337 3,5 C 0,0 km/h (0 Bft)
27.04.2015 02:10 7,7 C 7,6 C 74 % 1004,4 hPa 0,0 mm 0,5 km/h (0 Bft) SO 135 3,4 C 0,0 km/h (0 Bft)
27.04.2015 02:15 7,8 C 7,5 C 75 % 1004,4 hPa 0,0 mm 0,0 km/h (0 Bft) O 90 3,7 C 0,0 km/h (0 Bft)
27.04.2015 02:20 7,3 C 7,0 C 74 % 1004,4 hPa 0,0 mm 0,0 km/h (0 Bft) NO 45 3,0 C 0,0 km/h (0 Bft)
27.04.2015 02:25 6,7 C 6,5 C 74 % 1004,4 hPa 0,0 mm 0,0 km/h (0 Bft) NW 315 2,4 C 2,8 km/h (1 Bft)
27.04.2015 02:30 6,5 C 6,3 C 75 % 1004,4 hPa 0,0 mm 0,0 km/h (0 Bft) SW 225 2,4 C 0,0 km/h (0 Bft)
27.04.2015 02:35 6,7 C 6,4 C 78 % 1004,3 hPa 0,0 mm 0,5 km/h (0 Bft) S 180 3,1 C 0,0 km/h (0 Bft)
27.04.2015 02:40 7,4 C 6,9 C 79 % 1004,3 hPa 0,0 mm 2,6 km/h (1 Bft) O-SO 112 4,0 C 3,1 km/h (1 Bft)
27.04.2015 02:45 6,9 C 6,7 C 79 % 1004,3 hPa 0,0 mm 3,1 km/h (1 Bft) W 270 3,5 C 5,4 km/h (1 Bft)
27.04.2015 02:50 6,6 C 6,4 C 78 % 1004,3 hPa 0,0 mm 1,3 km/h (1 Bft) S-SO 157 3,0 C 0,0 km/h (0 Bft)
27.04.2015 02:55 7,2 C 7,0 C 76 % 1004,1 hPa 0,0 mm 1,0 km/h (0 Bft) NW 315 3,3 C 0,0 km/h (0 Bft)
27.04.2015 03:00 6,6 C 6,4 C 77 % 1004,1 hPa 0,0 mm 0,5 km/h (0 Bft) O 90 2,9 C 0,0 km/h (0 Bft)
27.04.2015 03:05 6,5 C 6,2 C 78 % 1004,1 hPa 0,0 mm 0,8 km/h (0 Bft) S-SO 157 2,9 C 4,9 km/h (1 Bft)
27.04.2015 03:10 7,1 C 6,8 C 77 % 1004,1 hPa 0,0 mm 2,1 km/h (1 Bft) NW 315 3,3 C 3,1 km/h (1 Bft)
27.04.2015 03:15 7,0 C 6,7 C 77 % 1004,0 hPa 0,0 mm 1,8 km/h (1 Bft) S-SO 157 3,2 C 0,0 km/h (0 Bft)
27.04.2015 03:20 7,0 C 6,8 C 77 % 1004,0 hPa 0,0 mm 0,5 km/h (0 Bft) SO 135 3,2 C 0,0 km/h (0 Bft)
27.04.2015 03:25 5,9 C 5,9 C 77 % 1004,0 hPa 0,0 mm 0,5 km/h (0 Bft) W-SW 247 2,2 C 0,0 km/h (0 Bft)
27.04.2015 03:30 5,9 C 5,8 C 78 % 1004,0 hPa 0,0 mm 0,3 km/h (0 Bft) SO 135 2,4 C 2,8 km/h (1 Bft)
27.04.2015 03:35 6,8 C 6,7 C 76 % 1003,8 hPa 0,0 mm 1,0 km/h (0 Bft) SO 135 2,9 C 0,0 km/h (0 Bft)
27.04.2015 03:40 6,1 C 6,0 C 77 % 1003,8 hPa 0,0 mm 1,3 km/h (1 Bft) SO 135 2,4 C 0,0 km/h (0 Bft)
27.04.2015 03:45 6,0 C 5,9 C 78 % 1003,8 hPa 0,0 mm 0,5 km/h (0 Bft) O-SO 112 2,5 C 0,0 km/h (0 Bft)
27.04.2015 03:50 5,9 C 5,8 C 79 % 1003,8 hPa 0,0 mm 0,5 km/h (0 Bft) NW 315 2,5 C 0,0 km/h (0 Bft)
27.04.2015 03:55 5,4 C 5,4 C 78 % 1003,6 hPa 0,0 mm 1,0 km/h (0 Bft) SO 135 1,9 C 3,6 km/h (1 Bft)
27.04.2015 04:00 5,6 C 5,6 C 79 % 1003,6 hPa 0,0 mm 1,0 km/h (0 Bft) S-SO 157 2,3 C 2,8 km/h (1 Bft)
27.04.2015 04:05 5,2 C 5,2 C 80 % 1003,6 hPa 0,0 mm 0,8 km/h (0 Bft) O-SO 112 2,0 C 2,6 km/h (1 Bft)
27.04.2015 04:10 5,2 C 5,1 C 80 % 1003,6 hPa 0,0 mm 0,3 km/h (0 Bft) NW 315 2,0 C 0,0 km/h (0 Bft)
27.04.2015 04:15 5,0 C 4,9 C 80 % 1003,4 hPa 0,0 mm 0,3 km/h (0 Bft) S-SO 157 1,8 C 0,0 km/h (0 Bft)
27.04.2015 04:20 5,2 C 5,0 C 80 % 1003,4 hPa 0,0 mm 0,8 km/h (0 Bft) S-SO 157 2,0 C 0,0 km/h (0 Bft)
27.04.2015 04:25 5,6 C 5,4 C 81 % 1003,4 hPa 0,0 mm 1,3 km/h (1 Bft) N-NO 22 2,6 C 0,0 km/h (0 Bft)
27.04.2015 04:30 5,3 C 5,2 C 81 % 1003,4 hPa 0,0 mm 1,3 km/h (1 Bft) N 360 2,3 C 0,0 km/h (0 Bft)
27.04.2015 04:35 4,9 C 4,8 C 80 % 1003,2 hPa 0,0 mm 0,5 km/h (0 Bft) S-SO 157 1,7 C 0,0 km/h (0 Bft)
27.04.2015 04:40 4,9 C 4,8 C 80 % 1003,2 hPa 0,0 mm 0,0 km/h (0 Bft) NO 45 1,7 C 0,0 km/h (0 Bft)
27.04.2015 04:45 5,0 C 4,8 C 81 % 1003,2 hPa 0,0 mm 0,0 km/h (0 Bft) O-NO 67 2,0 C 0,0 km/h (0 Bft)
27.04.2015 04:50 5,4 C 5,2 C 79 % 1003,2 hPa 0,0 mm 0,0 km/h (0 Bft) O-SO 112 2,1 C 0,0 km/h (0 Bft)
27.04.2015 04:55 5,8 C 5,5 C 82 % 1003,0 hPa 0,0 mm 0,0 km/h (0 Bft) O-NO 67 3,0 C 0,0 km/h (0 Bft)
27.04.2015 05:00 5,2 C 5,1 C 81 % 1003,0 hPa 0,0 mm 0,0 km/h (0 Bft) W-NW 292 2,2 C 0,0 km/h (0 Bft)
27.04.2015 05:05 5,4 C 5,3 C 79 % 1003,0 hPa 0,0 mm 0,5 km/h (0 Bft) W 270 2,1 C 7,8 km/h (2 Bft)
27.04.2015 05:10 5,1 C 5,0 C 82 % 1003,0 hPa 0,0 mm 0,8 km/h (0 Bft) O-SO 112 2,3 C 0,0 km/h (0 Bft)
27.04.2015 05:15 5,1 C 5,0 C 82 % 1003,0 hPa 0,0 mm 0,8 km/h (0 Bft) SO 135 2,3 C 2,6 km/h (1 Bft)
27.04.2015 05:20 5,6 C 5,6 C 79 % 1003,0 hPa 0,0 mm 0,8 km/h (0 Bft) W 270 2,3 C 7,8 km/h (2 Bft)
27.04.2015 05:25 5,6 C 5,5 C 82 % 1003,0 hPa 0,0 mm 1,8 km/h (1 Bft) O-SO 112 2,8 C 0,0 km/h (0 Bft)
27.04.2015 05:30 5,6 C 5,5 C 82 % 1003,0 hPa 0,0 mm 1,6 km/h (1 Bft) NW 315 2,8 C 0,0 km/h (0 Bft)
27.04.2015 05:35 5,1 C 5,1 C 82 % 1002,8 hPa 0,0 mm 0,0 km/h (0 Bft) NO 45 2,3 C 0,0 km/h (0 Bft)
27.04.2015 05:40 5,1 C 5,0 C 82 % 1002,8 hPa 0,0 mm 0,0 km/h (0 Bft) S 180 2,3 C 0,0 km/h (0 Bft)
27.04.2015 05:45 5,6 C 5,6 C 79 % 1002,8 hPa 0,0 mm 0,8 km/h (0 Bft) S-SW 202 2,3 C 6,2 km/h (2 Bft)
27.04.2015 05:50 6,7 C 6,7 C 79 % 1002,8 hPa 0,0 mm 1,6 km/h (1 Bft) NW 315 3,3 C 5,2 km/h (1 Bft)
27.04.2015 05:55 5,8 C 6,2 C 80 % 1002,7 hPa 0,0 mm 2,3 km/h (1 Bft) O-SO 112 2,6 C 2,6 km/h (1 Bft)
27.04.2015 06:00 5,8 C 6,0 C 81 % 1002,7 hPa 0,0 mm 1,6 km/h (1 Bft) O-SO 112 2,8 C 0,0 km/h (0 Bft)
27.04.2015 06:05 5,9 C 6,0 C 79 % 1002,7 hPa 0,0 mm 0,8 km/h (0 Bft) NO 45 2,5 C 0,0 km/h (0 Bft)
27.04.2015 06:10 6,0 C 6,1 C 79 % 1002,7 hPa 0,0 mm 0,3 km/h (0 Bft) O-SO 112 2,6 C 0,0 km/h (0 Bft)
27.04.2015 06:15 6,1 C 6,1 C 80 % 1002,8 hPa 0,0 mm 0,5 km/h (0 Bft) S-SO 157 2,9 C 0,0 km/h (0 Bft)
27.04.2015 06:20 6,2 C 6,3 C 79 % 1002,8 hPa 0,0 mm 0,3 km/h (0 Bft) SO 135 2,8 C 0,0 km/h (0 Bft)
27.04.2015 06:25 7,3 C 7,8 C 79 % 1002,8 hPa 0,0 mm 1,3 km/h (1 Bft) S 180 3,9 C 0,0 km/h (0 Bft)
27.04.2015 06:30 8,2 C 8,3 C 78 % 1002,8 hPa 0,0 mm 1,3 km/h (1 Bft) W 270 4,6 C 0,0 km/h (0 Bft)
27.04.2015 06:35 7,4 C 7,9 C 77 % 1002,8 hPa 0,0 mm 0,8 km/h (0 Bft) O 90 3,6 C 0,0 km/h (0 Bft)
27.04.2015 06:40 6,9 C 7,5 C 78 % 1002,8 hPa 0,0 mm 0,8 km/h (0 Bft) O 90 3,3 C 0,0 km/h (0 Bft)
27.04.2015 06:45 7,1 C 7,4 C 77 % 1002,8 hPa 0,0 mm 0,0 km/h (0 Bft) O-SO 112 3,3 C 0,0 km/h (0 Bft)
27.04.2015 06:50 7,2 C 7,4 C 77 % 1002,8 hPa 0,0 mm 0,0 km/h (0 Bft) O 90 3,4 C 0,0 km/h (0 Bft)
27.04.2015 06:55 7,3 C 7,6 C 77 % 1002,6 hPa 0,0 mm 0,0 km/h (0 Bft) NW 315 3,5 C 0,0 km/h (0 Bft)
27.04.2015 07:00 7,3 C 7,7 C 77 % 1002,6 hPa 0,0 mm 0,8 km/h (0 Bft) NW 315 3,5 C 0,0 km/h (0 Bft)
27.04.2015 07:05 7,3 C 7,6 C 77 % 1002,6 hPa 0,0 mm 0,8 km/h (0 Bft) O-SO 112 3,5 C 0,0 km/h (0 Bft)
27.04.2015 07:10 7,4 C 7,7 C 77 % 1002,6 hPa 0,0 mm 0,0 km/h (0 Bft) O-NO 67 3,6 C 0,0 km/h (0 Bft)
27.04.2015 07:15 7,5 C 7,9 C 77 % 1002,6 hPa 0,0 mm 0,0 km/h (0 Bft) O-NO 67 3,7 C 0,0 km/h (0 Bft)
27.04.2015 07:20 7,6 C 8,0 C 77 % 1002,6 hPa 0,0 mm 0,0 km/h (0 Bft) SO 135 3,8 C 0,0 km/h (0 Bft)
27.04.2015 07:25 7,8 C 8,3 C 77 % 1002,6 hPa 0,0 mm 0,0 km/h (0 Bft) O 90 4,0 C 0,0 km/h (0 Bft)
27.04.2015 07:30 7,8 C 8,4 C 77 % 1002,6 hPa 0,0 mm 0,0 km/h (0 Bft) SO 135 4,0 C 0,0 km/h (0 Bft)
27.04.2015 07:35 8,0 C 8,8 C 76 % 1002,8 hPa 0,0 mm 0,0 km/h (0 Bft) S-SW 202 4,0 C 0,0 km/h (0 Bft)
27.04.2015 07:40 8,2 C 9,2 C 76 % 1002,8 hPa 0,0 mm 0,0 km/h (0 Bft) W 270 4,2 C 0,0 km/h (0 Bft)
27.04.2015 07:45 8,5 C 9,8 C 76 % 1002,8 hPa 0,0 mm 0,0 km/h (0 Bft) W 270 4,5 C 0,0 km/h (0 Bft)
27.04.2015 07:50 8,8 C 10,2 C 75 % 1002,8 hPa 0,0 mm 0,0 km/h (0 Bft) W 270 4,6 C 0,0 km/h (0 Bft)
27.04.2015 07:55 9,0 C 10,9 C 75 % 1002,9 hPa 0,0 mm 0,0 km/h (0 Bft) W 270 4,8 C 0,0 km/h (0 Bft)
27.04.2015 08:00 9,4 C 11,4 C 74 % 1002,9 hPa 0,0 mm 0,0 km/h (0 Bft) W 270 5,0 C 0,0 km/h (0 Bft)
27.04.2015 08:05 10,0 C 12,9 C 74 % 1002,9 hPa 0,0 mm 0,0 km/h (0 Bft) W 270 5,6 C 0,0 km/h (0 Bft)
27.04.2015 08:10 10,4 C 13,6 C 73 % 1002,9 hPa 0,0 mm 0,0 km/h (0 Bft) W 270 5,8 C 0,0 km/h (0 Bft)
27.04.2015 08:15 10,8 C 14,3 C 73 % 1002,9 hPa 0,0 mm 0,0 km/h (0 Bft) W 270 6,2 C 0,0 km/h (0 Bft)
27.04.2015 08:20 10,8 C 14,0 C 72 % 1002,9 hPa 0,0 mm 0,0 km/h (0 Bft) O-NO 67 6,0 C 0,0 km/h (0 Bft)
27.04.2015 08:25 11,0 C 13,7 C 72 % 1002,9 hPa 0,0 mm 0,0 km/h (0 Bft) O-NO 67 6,2 C 0,0 km/h (0 Bft)
27.04.2015 08:30 11,3 C 13,9 C 72 % 1002,9 hPa 0,0 mm 0,3 km/h (0 Bft) W-NW 292 6,4 C 0,0 km/h (0 Bft)
27.04.2015 08:35 11,7 C 15,2 C 72 % 1003,2 hPa 0,0 mm 0,5 km/h (0 Bft) S-SW 202 6,8 C 0,0 km/h (0 Bft)
27.04.2015 08:40 12,1 C 16,0 C 71 % 1003,2 hPa 0,0 mm 0,8 km/h (0 Bft) W-SW 247 7,0 C 0,0 km/h (0 Bft)
27.04.2015 08:45 12,5 C 16,4 C 70 % 1003,2 hPa 0,0 mm 1,0 km/h (0 Bft) SW 225 7,2 C 3,4 km/h (1 Bft)
27.04.2015 08:50 12,5 C 16,2 C 69 % 1003,2 hPa 0,0 mm 1,8 km/h (1 Bft) W-SW 247 7,0 C 0,0 km/h (0 Bft)
27.04.2015 08:55 12,8 C 16,0 C 69 % 1003,4 hPa 0,0 mm 1,3 km/h (1 Bft) NO 45 7,3 C 0,0 km/h (0 Bft)
27.04.2015 09:00 13,2 C 16,4 C 68 % 1003,4 hPa 0,0 mm 0,0 km/h (0 Bft) O-NO 67 7,4 C 0,0 km/h (0 Bft)
27.04.2015 09:05 13,6 C 17,0 C 67 % 1003,4 hPa 0,0 mm 0,0 km/h (0 Bft) O-NO 67 7,6 C 0,0 km/h (0 Bft)
27.04.2015 09:10 13,7 C 16,8 C 67 % 1003,4 hPa 0,0 mm 0,0 km/h (0 Bft) W-SW 247 7,7 C 0,0 km/h (0 Bft)
27.04.2015 09:15 13,7 C 16,4 C 66 % 1003,4 hPa 0,0 mm 1,3 km/h (1 Bft) S 180 7,5 C 10,4 km/h (2 Bft)
27.04.2015 09:20 13,6 C 16,2 C 64 % 1003,4 hPa 0,0 mm 2,1 km/h (1 Bft) S-SO 157 6,9 C 0,0 km/h (0 Bft)
27.04.2015 09:25 13,8 C 16,2 C 63 % 1003,4 hPa 0,0 mm 3,9 km/h (1 Bft) SW 225 6,9 C 4,1 km/h (1 Bft)
27.04.2015 09:30 14,0 C 16,4 C 63 % 1003,4 hPa 0,0 mm 2,3 km/h (1 Bft) W-SW 247 7,1 C 0,0 km/h (0 Bft)
27.04.2015 09:35 14,2 C 17,2 C 61 % 1003,3 hPa 0,0 mm 0,5 km/h (0 Bft) SW 225 6,8 C 0,0 km/h (0 Bft)
27.04.2015 09:40 14,8 C 18,0 C 60 % 1003,3 hPa 0,0 mm 0,0 km/h (0 Bft) O 90 7,1 C 0,0 km/h (0 Bft)
27.04.2015 09:45 15,0 C 18,3 C 59 % 1003,3 hPa 0,0 mm 0,0 km/h (0 Bft) NW 315 7,1 C 3,4 km/h (1 Bft)
27.04.2015 09:50 15,3 C 18,5 C 59 % 1003,3 hPa 0,0 mm 1,3 km/h (1 Bft) NW 315 7,3 C 4,4 km/h (1 Bft)
27.04.2015 09:55 15,5 C 19,5 C 59 % 1003,4 hPa 0,0 mm 1,3 km/h (1 Bft) SO 135 7,5 C 0,0 km/h (0 Bft)
27.04.2015 10:00 15,9 C 20,5 C 58 % 1003,4 hPa 0,0 mm 0,3 km/h (0 Bft) SO 135 7,6 C 0,0 km/h (0 Bft)
27.04.2015 10:05 16,9 C 23,3 C 56 % 1003,4 hPa 0,0 mm 0,3 km/h (0 Bft) N-NO 22 8,1 C 3,4 km/h (1 Bft)
27.04.2015 10:10 17,6 C 25,0 C 55 % 1003,4 hPa 0,0 mm 0,3 km/h (0 Bft) O 90 8,5 C 0,0 km/h (0 Bft)
27.04.2015 10:15 18,1 C 26,3 C 53 % 1003,5 hPa 0,0 mm 1,0 km/h (0 Bft) O-NO 67 8,4 C 3,1 km/h (1 Bft)
27.04.2015 10:20 18,0 C 25,7 C 51 % 1003,5 hPa 0,0 mm 3,1 km/h (1 Bft) O-NO 67 7,7 C 7,0 km/h (2 Bft)
27.04.2015 10:25 18,2 C 25,4 C 51 % 1003,5 hPa 0,0 mm 4,1 km/h (1 Bft) N-NO 22 7,9 C 2,6 km/h (1 Bft)
27.04.2015 10:30 18,2 C 25,3 C 50 % 1003,5 hPa 0,0 mm 4,7 km/h (1 Bft) O-NO 67 7,6 C 7,3 km/h (2 Bft)
27.04.2015 10:35 18,0 C 24,9 C 48 % 1003,8 hPa 0,0 mm 4,9 km/h (1 Bft) NW 315 6,8 C 6,2 km/h (2 Bft)
27.04.2015 10:40 18,1 C 25,3 C 50 % 1003,8 hPa 0,0 mm 4,4 km/h (1 Bft) N-NW 337 7,5 C 4,9 km/h (1 Bft)
27.04.2015 10:45 18,2 C 25,1 C 50 % 1003,8 hPa 0,0 mm 4,4 km/h (1 Bft) N-NW 337 7,6 C 6,5 km/h (2 Bft)
27.04.2015 10:50 17,6 C 23,2 C 51 % 1003,8 hPa 0,0 mm 3,6 km/h (1 Bft) O-NO 67 7,3 C 3,1 km/h (1 Bft)
27.04.2015 10:55 17,7 C 23,2 C 51 % 1003,6 hPa 0,0 mm 2,1 km/h (1 Bft) O-NO 67 7,4 C 0,0 km/h (0 Bft)
27.04.2015 11:00 18,5 C 24,3 C 50 % 1003,6 hPa 0,0 mm 1,8 km/h (1 Bft) NO 45 7,9 C 0,0 km/h (0 Bft)
27.04.2015 11:05 19,3 C 25,8 C 51 % 1003,6 hPa 0,0 mm 3,1 km/h (1 Bft) N-NW 337 8,9 C 9,6 km/h (2 Bft)
27.04.2015 11:10 19,2 C 25,8 C 49 % 1003,6 hPa 0,0 mm 4,4 km/h (1 Bft) N-NO 22 8,2 C 0,0 km/h (0 Bft)
27.04.2015 11:15 19,1 C 25,8 C 49 % 1003,8 hPa 0,0 mm 7,8 km/h (2 Bft) O-NO 67 8,1 C 19,4 km/h (3 Bft)
27.04.2015 11:20 19,2 C 25,5 C 49 % 1003,8 hPa 0,0 mm 8,0 km/h (2 Bft) N-NO 22 8,2 C 11,4 km/h (2 Bft)
27.04.2015 11:25 19,1 C 25,0 C 49 % 1003,8 hPa 0,0 mm 10,9 km/h (2 Bft) O-NO 67 8,1 C 10,4 km/h (2 Bft)
27.04.2015 11:30 19,2 C 25,0 C 49 % 1003,8 hPa 0,0 mm 9,8 km/h (2 Bft) N-NO 22 8,2 C 4,9 km/h (1 Bft)
27.04.2015 11:35 19,3 C 25,0 C 50 % 1003,8 hPa 0,0 mm 8,5 km/h (2 Bft) NO 45 8,6 C 22,0 km/h (4 Bft)
27.04.2015 11:40 19,1 C 24,9 C 51 % 1003,8 hPa 0,0 mm 8,5 km/h (2 Bft) NO 45 8,7 C 15,5 km/h (3 Bft)
27.04.2015 11:45 18,5 C 23,6 C 51 % 1003,8 hPa 0,0 mm 10,4 km/h (2 Bft) NO 45 8,2 C 9,3 km/h (2 Bft)
27.04.2015 11:50 18,4 C 22,8 C 51 % 1003,8 hPa 0,0 mm 11,7 km/h (2 Bft) N-NO 22 8,1 C 13,5 km/h (3 Bft)
27.04.2015 11:55 18,2 C 21,7 C 52 % 1003,6 hPa 0,0 mm 9,6 km/h (2 Bft) NO 45 8,2 C 11,9 km/h (2 Bft)
27.04.2015 12:00 18,2 C 21,4 C 53 % 1003,6 hPa 0,0 mm 8,5 km/h (2 Bft) N-NO 22 8,5 C 6,5 km/h (2 Bft)
27.04.2015 12:05 18,4 C 21,4 C 53 % 1003,6 hPa 0,0 mm 7,8 km/h (2 Bft) N-NO 22 8,6 C 15,5 km/h (3 Bft)
27.04.2015 12:10 18,4 C 21,8 C 52 % 1003,6 hPa 0,0 mm 8,3 km/h (2 Bft) N-NO 22 8,4 C 11,4 km/h (2 Bft)
27.04.2015 12:15 18,6 C 22,3 C 51 % 1003,4 hPa 0,0 mm 11,4 km/h (2 Bft) O-NO 67 8,3 C 7,0 km/h (2 Bft)
27.04.2015 12:20 19,1 C 23,2 C 53 % 1003,4 hPa 0,0 mm 11,4 km/h (2 Bft) N-NO 22 9,3 C 10,6 km/h (2 Bft)
27.04.2015 12:25 19,6 C 24,7 C 51 % 1003,4 hPa 0,0 mm 9,6 km/h (2 Bft) NO 45 9,2 C 12,7 km/h (3 Bft)
27.04.2015 12:30 19,6 C 24,7 C 51 % 1003,4 hPa 0,0 mm 10,1 km/h (2 Bft) N-NW 337 9,2 C 18,9 km/h (3 Bft)
27.04.2015 12:35 19,6 C 24,4 C 50 % 1003,3 hPa 0,0 mm 11,4 km/h (2 Bft) W-SW 247 8,9 C 25,1 km/h (4 Bft)
27.04.2015 12:40 19,6 C 24,7 C 50 % 1003,3 hPa 0,0 mm 11,4 km/h (2 Bft) NW 315 8,9 C 12,9 km/h (3 Bft)
27.04.2015 12:45 19,0 C 23,6 C 50 % 1003,3 hPa 0,0 mm 9,6 km/h (2 Bft) O-NO 67 8,3 C 12,2 km/h (2 Bft)
27.04.2015 12:50 18,7 C 22,6 C 51 % 1003,3 hPa 0,0 mm 9,3 km/h (2 Bft) NW 315 8,4 C 14,0 km/h (3 Bft)
27.04.2015 12:55 18,7 C 21,8 C 50 % 1003,2 hPa 0,0 mm 10,4 km/h (2 Bft) N-NO 22 8,1 C 12,7 km/h (3 Bft)
27.04.2015 13:00 18,5 C 21,4 C 51 % 1003,2 hPa 0,0 mm 10,1 km/h (2 Bft) N 360 8,2 C 11,9 km/h (2 Bft)
27.04.2015 13:05 18,8 C 22,1 C 51 % 1003,2 hPa 0,0 mm 9,3 km/h (2 Bft) N-NO 22 8,4 C 4,9 km/h (1 Bft)
27.04.2015 13:10 19,5 C 23,0 C 51 % 1003,2 hPa 0,0 mm 8,8 km/h (2 Bft) NW 315 9,1 C 9,8 km/h (2 Bft)
27.04.2015 13:15 19,8 C 24,2 C 51 % 1002,9 hPa 0,0 mm 9,8 km/h (2 Bft) NO 45 9,4 C 14,5 km/h (3 Bft)
27.04.2015 13:20 19,7 C 24,3 C 49 % 1002,9 hPa 0,0 mm 9,8 km/h (2 Bft) NO 45 8,7 C 7,8 km/h (2 Bft)
27.04.2015 13:25 19,7 C 23,4 C 49 % 1002,9 hPa 0,0 mm 9,1 km/h (2 Bft) O-SO 112 8,7 C 9,1 km/h (2 Bft)
27.04.2015 13:30 19,4 C 22,4 C 50 % 1002,9 hPa 0,0 mm 7,0 km/h (2 Bft) O-NO 67 8,7 C 16,6 km/h (3 Bft)
27.04.2015 13:35 19,6 C 22,1 C 50 % 1002,4 hPa 0,0 mm 8,0 km/h (2 Bft) N-NO 22 8,9 C 15,3 km/h (3 Bft)
27.04.2015 13:40 19,9 C 22,5 C 49 % 1002,4 hPa 0,0 mm 9,6 km/h (2 Bft) N-NO 22 8,9 C 13,5 km/h (3 Bft)
27.04.2015 13:45 20,2 C 23,0 C 48 % 1002,4 hPa 0,0 mm 9,6 km/h (2 Bft) O-NO 67 8,8 C 3,1 km/h (1 Bft)
27.04.2015 13:50 20,3 C 23,7 C 48 % 1002,4 hPa 0,0 mm 8,8 km/h (2 Bft) NO 45 8,9 C 13,2 km/h (3 Bft)
27.04.2015 13:55 20,2 C 24,2 C 48 % 1002,4 hPa 0,0 mm 11,7 km/h (2 Bft) N-NO 22 8,8 C 26,2 km/h (4 Bft)
27.04.2015 14:00 20,5 C 24,4 C 48 % 1002,4 hPa 0,0 mm 13,5 km/h (3 Bft) N-NO 22 9,1 C 11,4 km/h (2 Bft)
27.04.2015 14:05 20,6 C 24,9 C 47 % 1002,4 hPa 0,0 mm 11,9 km/h (2 Bft) O-NO 67 8,9 C 21,8 km/h (4 Bft)
27.04.2015 14:10 20,7 C 25,0 C 48 % 1002,4 hPa 0,0 mm 11,4 km/h (2 Bft) N-NO 22 9,3 C 14,2 km/h (3 Bft)
27.04.2015 14:15 20,6 C 25,0 C 47 % 1002,1 hPa 0,0 mm 12,7 km/h (3 Bft) O-NO 67 8,9 C 12,2 km/h (2 Bft)
27.04.2015 14:20 21,0 C 25,3 C 47 % 1002,1 hPa 0,0 mm 12,2 km/h (2 Bft) S-SO 157 9,3 C 25,6 km/h (4 Bft)
27.04.2015 14:25 20,9 C 25,1 C 48 % 1002,1 hPa 0,0 mm 12,2 km/h (2 Bft) O-NO 67 9,5 C 17,9 km/h (3 Bft)
27.04.2015 14:30 20,8 C 24,9 C 48 % 1002,1 hPa 0,0 mm 14,2 km/h (3 Bft) NO 45 9,4 C 13,7 km/h (3 Bft)
27.04.2015 14:35 20,9 C 24,7 C 49 % 1001,9 hPa 0,0 mm 14,0 km/h (3 Bft) O-NO 67 9,8 C 12,9 km/h (3 Bft)
27.04.2015 14:40 20,8 C 24,8 C 48 % 1001,9 hPa 0,0 mm 12,7 km/h (3 Bft) NO 45 9,4 C 19,9 km/h (4 Bft)
27.04.2015 14:45 20,5 C 24,3 C 46 % 1001,9 hPa 0,0 mm 12,4 km/h (3 Bft) NO 45 8,5 C 17,9 km/h (3 Bft)
27.04.2015 14:50 20,5 C 23,6 C 47 % 1001,9 hPa 0,0 mm 12,4 km/h (3 Bft) N-NO 22 8,8 C 16,1 km/h (3 Bft)
27.04.2015 14:55 20,6 C 23,9 C 46 % 1001,8 hPa 0,0 mm 12,9 km/h (3 Bft) O-NO 67 8,6 C 15,8 km/h (3 Bft)
27.04.2015 15:00 20,8 C 24,1 C 47 % 1001,8 hPa 0,0 mm 12,9 km/h (3 Bft) O-NO 67 9,1 C 12,7 km/h (3 Bft)
27.04.2015 15:05 20,5 C 23,5 C 47 % 1001,8 hPa 0,0 mm 12,7 km/h (3 Bft) NO 45 8,8 C 29,0 km/h (5 Bft)
27.04.2015 15:10 20,8 C 23,8 C 46 % 1001,8 hPa 0,0 mm 14,0 km/h (3 Bft) NO 45 8,8 C 8,0 km/h (2 Bft)
27.04.2015 15:15 20,8 C 23,8 C 45 % 1001,5 hPa 0,0 mm 14,8 km/h (3 Bft) NO 45 8,4 C 29,3 km/h (5 Bft)
27.04.2015 15:20 20,9 C 23,9 C 45 % 1001,5 hPa 0,0 mm 14,2 km/h (3 Bft) O-NO 67 8,5 C 10,1 km/h (2 Bft)
27.04.2015 15:25 20,7 C 23,5 C 45 % 1001,5 hPa 0,0 mm 13,2 km/h (3 Bft) SO 135 8,3 C 17,6 km/h (3 Bft)
27.04.2015 15:30 20,8 C 23,4 C 45 % 1001,5 hPa 0,0 mm 11,1 km/h (2 Bft) N-NO 22 8,4 C 21,8 km/h (4 Bft)
27.04.2015 15:35 20,5 C 22,6 C 45 % 1001,2 hPa 0,0 mm 12,7 km/h (3 Bft) O-NO 67 8,2 C 14,8 km/h (3 Bft)
27.04.2015 15:40 20,5 C 22,3 C 44 % 1001,2 hPa 0,0 mm 14,0 km/h (3 Bft) N-NO 22 7,8 C 17,6 km/h (3 Bft)
27.04.2015 15:45 20,6 C 22,6 C 43 % 1001,2 hPa 0,0 mm 14,2 km/h (3 Bft) NO 45 7,6 C 11,7 km/h (2 Bft)
27.04.2015 15:50 20,9 C 23,5 C 44 % 1001,2 hPa 0,0 mm 11,9 km/h (2 Bft) N-NO 22 8,2 C 22,3 km/h (4 Bft)
27.04.2015 15:55 20,7 C 23,3 C 43 % 1001,1 hPa 0,0 mm 11,1 km/h (2 Bft) N 360 7,7 C 11,4 km/h (2 Bft)
27.04.2015 16:00 20,3 C 22,7 C 44 % 1001,1 hPa 0,0 mm 11,7 km/h (2 Bft) O-NO 67 7,6 C 7,5 km/h (2 Bft)
27.04.2015 16:05 20,2 C 22,1 C 44 % 1001,1 hPa 0,0 mm 9,3 km/h (2 Bft) NO 45 7,6 C 8,0 km/h (2 Bft)
27.04.2015 16:10 20,2 C 21,9 C 44 % 1001,1 hPa 0,0 mm 10,1 km/h (2 Bft) O-NO 67 7,6 C 11,4 km/h (2 Bft)
27.04.2015 16:15 20,2 C 22,0 C 44 % 1000,9 hPa 0,0 mm 12,7 km/h (3 Bft) O-NO 67 7,6 C 22,5 km/h (4 Bft)
27.04.2015 16:20 20,5 C 22,6 C 44 % 1000,9 hPa 0,0 mm 13,2 km/h (3 Bft) O-NO 67 7,8 C 17,6 km/h (3 Bft)
27.04.2015 16:25 20,6 C 22,8 C 44 % 1000,9 hPa 0,0 mm 13,2 km/h (3 Bft) O-NO 67 7,9 C 12,2 km/h (2 Bft)
27.04.2015 16:30 20,4 C 22,6 C 44 % 1000,9 hPa 0,0 mm 12,2 km/h (2 Bft) N-NO 22 7,7 C 10,1 km/h (2 Bft)
27.04.2015 16:35 20,5 C 22,5 C 43 % 1000,7 hPa 0,0 mm 11,1 km/h (2 Bft) N-NO 22 7,5 C 14,8 km/h (3 Bft)
27.04.2015 16:40 20,4 C 22,2 C 43 % 1000,7 hPa 0,0 mm 10,4 km/h (2 Bft) O-NO 67 7,4 C 6,5 km/h (2 Bft)
27.04.2015 16:45 20,2 C 21,7 C 43 % 1000,7 hPa 0,0 mm 10,1 km/h (2 Bft) O-NO 67 7,2 C 14,8 km/h (3 Bft)
27.04.2015 16:50 20,2 C 21,6 C 44 % 1000,7 hPa 0,0 mm 10,4 km/h (2 Bft) N-NO 22 7,6 C 14,2 km/h (3 Bft)
27.04.2015 16:55 20,2 C 21,5 C 44 % 1000,6 hPa 0,0 mm 10,4 km/h (2 Bft) O-NO 67 7,6 C 15,0 km/h (3 Bft)
27.04.2015 17:00 20,2 C 21,5 C 43 % 1000,6 hPa 0,0 mm 10,1 km/h (2 Bft) N-NO 22 7,2 C 15,5 km/h (3 Bft)
27.04.2015 17:05 20,2 C 21,4 C 42 % 1000,6 hPa 0,0 mm 10,1 km/h (2 Bft) N-NO 22 6,9 C 5,7 km/h (1 Bft)
27.04.2015 17:10 20,2 C 21,6 C 43 % 1000,6 hPa 0,0 mm 9,3 km/h (2 Bft) NO 45 7,2 C 10,4 km/h (2 Bft)
27.04.2015 17:15 20,3 C 21,7 C 43 % 1000,6 hPa 0,0 mm 8,8 km/h (2 Bft) NO 45 7,3 C 6,2 km/h (2 Bft)
27.04.2015 17:20 20,3 C 21,7 C 45 % 1000,6 hPa 0,0 mm 7,8 km/h (2 Bft) O-NO 67 8,0 C 4,7 km/h (1 Bft)
27.04.2015 17:25 20,2 C 21,6 C 45 % 1000,6 hPa 0,0 mm 2,8 km/h (1 Bft) N-NO 22 7,9 C 2,6 km/h (1 Bft)
27.04.2015 17:30 20,1 C 21,5 C 44 % 1000,6 hPa 0,0 mm 2,3 km/h (1 Bft) SO 135 7,5 C 3,1 km/h (1 Bft)
27.04.2015 17:35 20,0 C 21,5 C 44 % 1000,2 hPa 0,0 mm 2,3 km/h (1 Bft) O-SO 112 7,4 C 2,8 km/h (1 Bft)
27.04.2015 17:40 20,0 C 21,5 C 44 % 1000,2 hPa 0,0 mm 1,8 km/h (1 Bft) NO 45 7,4 C 0,0 km/h (0 Bft)
27.04.2015 17:45 20,1 C 21,6 C 45 % 1000,2 hPa 0,0 mm 0,5 km/h (0 Bft) O 90 7,8 C 0,0 km/h (0 Bft)
27.04.2015 17:50 20,1 C 21,6 C 45 % 1000,2 hPa 0,0 mm 0,3 km/h (0 Bft) NO 45 7,8 C 0,0 km/h (0 Bft)
27.04.2015 17:55 20,1 C 21,5 C 44 % 1000,3 hPa 0,0 mm 0,8 km/h (0 Bft) O-NO 67 7,5 C 5,4 km/h (1 Bft)
27.04.2015 18:00 19,9 C 21,3 C 45 % 1000,3 hPa 0,0 mm 1,6 km/h (1 Bft) NO 45 7,6 C 0,0 km/h (0 Bft)
27.04.2015 18:05 19,8 C 21,1 C 45 % 1000,3 hPa 0,0 mm 1,3 km/h (1 Bft) O-NO 67 7,5 C 0,0 km/h (0 Bft)
27.04.2015 18:10 19,7 C 21,1 C 44 % 1000,3 hPa 0,0 mm 0,3 km/h (0 Bft) O-NO 67 7,1 C 0,0 km/h (0 Bft)
27.04.2015 18:15 19,6 C 21,1 C 44 % 1000,1 hPa 0,0 mm 0,0 km/h (0 Bft) O-NO 67 7,0 C 0,0 km/h (0 Bft)
27.04.2015 18:20 19,6 C 21,1 C 44 % 1000,1 hPa 0,0 mm 0,0 km/h (0 Bft) O-NO 67 7,0 C 0,0 km/h (0 Bft)
27.04.2015 18:25 19,1 C 20,7 C 45 % 1000,1 hPa 0,0 mm 0,0 km/h (0 Bft) O-NO 67 6,9 C 0,0 km/h (0 Bft)
27.04.2015 18:30 18,9 C 20,3 C 46 % 1000,1 hPa 0,0 mm 0,5 km/h (0 Bft) NO 45 7,0 C 0,0 km/h (0 Bft)
27.04.2015 18:35 18,6 C 19,8 C 47 % 999,7 hPa 0,0 mm 0,5 km/h (0 Bft) O 90 7,1 C 0,0 km/h (0 Bft)
27.04.2015 18:40 18,4 C 19,5 C 47 % 999,7 hPa 0,0 mm 0,3 km/h (0 Bft) NO 45 6,9 C 0,0 km/h (0 Bft)
27.04.2015 18:45 18,0 C 19,0 C 47 % 999,7 hPa 0,0 mm 0,0 km/h (0 Bft) O 90 6,5 C 0,0 km/h (0 Bft)
27.04.2015 18:50 17,9 C 18,6 C 47 % 999,7 hPa 0,0 mm 0,0 km/h (0 Bft) O-NO 67 6,4 C 0,0 km/h (0 Bft)
27.04.2015 18:55 17,7 C 18,2 C 47 % 999,8 hPa 0,0 mm 0,0 km/h (0 Bft) O-NO 67 6,2 C 0,0 km/h (0 Bft)
27.04.2015 19:00 17,4 C 17,9 C 48 % 999,8 hPa 0,0 mm 0,0 km/h (0 Bft) O-NO 67 6,3 C 0,0 km/h (0 Bft)
27.04.2015 19:05 17,3 C 17,5 C 47 % 999,8 hPa 0,0 mm 0,0 km/h (0 Bft) O-NO 67 5,9 C 0,0 km/h (0 Bft)
27.04.2015 19:10 17,0 C 17,3 C 48 % 999,8 hPa 0,0 mm 0,3 km/h (0 Bft) SO 135 5,9 C 0,0 km/h (0 Bft)
27.04.2015 19:15 16,7 C 17,0 C 48 % 999,8 hPa 0,0 mm 0,5 km/h (0 Bft) N-NO 22 5,6 C 0,0 km/h (0 Bft)
27.04.2015 19:20 16,4 C 16,7 C 49 % 999,8 hPa 0,0 mm 0,0 km/h (0 Bft) N-NO 22 5,7 C 0,0 km/h (0 Bft)
27.04.2015 19:25 16,1 C 16,3 C 49 % 999,8 hPa 0,0 mm 0,0 km/h (0 Bft) N 360 5,4 C 0,0 km/h (0 Bft)
27.04.2015 19:30 16,0 C 16,1 C 49 % 999,8 hPa 0,0 mm 0,3 km/h (0 Bft) W-NW 292 5,3 C 0,0 km/h (0 Bft)
27.04.2015 19:35 16,3 C 16,2 C 49 % 999,8 hPa 0,0 mm 0,8 km/h (0 Bft) S 180 5,6 C 0,0 km/h (0 Bft)
27.04.2015 19:40 16,7 C 16,5 C 48 % 999,8 hPa 0,0 mm 0,5 km/h (0 Bft) S 180 5,6 C 0,0 km/h (0 Bft)
27.04.2015 19:45 16,6 C 16,4 C 47 % 999,8 hPa 0,0 mm 1,0 km/h (0 Bft) S-SW 202 5,2 C 0,0 km/h (0 Bft)
27.04.2015 19:50 16,4 C 16,3 C 47 % 999,8 hPa 0,0 mm 1,6 km/h (1 Bft) S-SW 202 5,1 C 2,8 km/h (1 Bft)
27.04.2015 19:55 16,0 C 16,0 C 47 % 999,7 hPa 0,0 mm 1,3 km/h (1 Bft) O-SO 112 4,7 C 2,6 km/h (1 Bft)
27.04.2015 20:00 15,5 C 15,6 C 49 % 999,7 hPa 0,0 mm 0,8 km/h (0 Bft) O-SO 112 4,8 C 3,4 km/h (1 Bft)
27.04.2015 20:05 15,5 C 15,4 C 49 % 999,7 hPa 0,0 mm 3,1 km/h (1 Bft) SW 225 4,8 C 7,5 km/h (2 Bft)
27.04.2015 20:10 15,2 C 15,2 C 51 % 999,7 hPa 0,0 mm 4,4 km/h (1 Bft) SW 225 5,1 C 5,7 km/h (1 Bft)
27.04.2015 20:15 15,3 C 15,2 C 52 % 999,9 hPa 0,0 mm 6,5 km/h (2 Bft) SW 225 5,5 C 9,6 km/h (2 Bft)
27.04.2015 20:20 14,7 C 14,9 C 54 % 999,9 hPa 0,0 mm 5,7 km/h (1 Bft) SW 225 5,5 C 6,0 km/h (2 Bft)
27.04.2015 20:25 14,5 C 14,6 C 55 % 999,9 hPa 0,0 mm 3,1 km/h (1 Bft) SW 225 5,6 C 9,1 km/h (2 Bft)
27.04.2015 20:30 14,6 C 14,6 C 56 % 999,9 hPa 0,0 mm 4,4 km/h (1 Bft) S-SW 202 5,9 C 8,5 km/h (2 Bft)
27.04.2015 20:35 14,8 C 14,7 C 55 % 999,9 hPa 0,0 mm 8,0 km/h (2 Bft) SW 225 5,8 C 10,9 km/h (2 Bft)
27.04.2015 20:40 14,6 C 14,7 C 54 % 999,9 hPa 0,0 mm 8,3 km/h (2 Bft) SW 225 5,4 C 7,0 km/h (2 Bft)
27.04.2015 20:45 14,0 C 14,4 C 55 % 999,9 hPa 0,0 mm 5,2 km/h (1 Bft) S 180 5,1 C 0,0 km/h (0 Bft)
27.04.2015 20:50 13,8 C 13,9 C 56 % 999,9 hPa 0,0 mm 2,3 km/h (1 Bft) S 180 5,2 C 0,0 km/h (0 Bft)
27.04.2015 20:55 13,6 C 13,7 C 57 % 1000,0 hPa 0,0 mm 3,6 km/h (1 Bft) S-SW 202 5,2 C 7,8 km/h (2 Bft)
27.04.2015 21:00 14,0 C 13,9 C 58 % 1000,0 hPa 0,0 mm 6,2 km/h (2 Bft) S 180 5,9 C 8,5 km/h (2 Bft)
27.04.2015 21:05 13,8 C 13,9 C 59 % 1000,0 hPa 0,0 mm 7,0 km/h (2 Bft) W-SW 247 5,9 C 3,4 km/h (1 Bft)
27.04.2015 21:10 13,6 C 13,7 C 59 % 1000,0 hPa 0,0 mm 4,1 km/h (1 Bft) SW 225 5,7 C 0,0 km/h (0 Bft)
27.04.2015 21:15 13,4 C 13,4 C 59 % 1000,2 hPa 0,0 mm 1,0 km/h (0 Bft) O-SO 112 5,6 C 0,0 km/h (0 Bft)
27.04.2015 21:20 13,5 C 13,4 C 60 % 1000,2 hPa 0,0 mm 1,6 km/h (1 Bft) S 180 5,9 C 3,9 km/h (1 Bft)
27.04.2015 21:25 13,4 C 13,3 C 59 % 1000,2 hPa 0,0 mm 1,0 km/h (0 Bft) SW 225 5,6 C 0,0 km/h (0 Bft)
27.04.2015 21:30 12,8 C 13,0 C 61 % 1000,2 hPa 0,0 mm 0,5 km/h (0 Bft) W-SW 247 5,5 C 0,0 km/h (0 Bft)
27.04.2015 21:35 13,2 C 13,1 C 62 % 1000,6 hPa 0,0 mm 2,1 km/h (1 Bft) S-SW 202 6,1 C 8,3 km/h (2 Bft)
27.04.2015 21:40 13,7 C 13,5 C 61 % 1000,6 hPa 0,0 mm 4,9 km/h (1 Bft) W 270 6,3 C 7,5 km/h (2 Bft)
27.04.2015 21:45 13,6 C 13,6 C 62 % 1000,6 hPa 0,0 mm 6,5 km/h (2 Bft) S-SW 202 6,5 C 9,3 km/h (2 Bft)
27.04.2015 21:50 13,7 C 13,6 C 63 % 1000,6 hPa 0,0 mm 5,2 km/h (1 Bft) W-SW 247 6,8 C 8,3 km/h (2 Bft)
27.04.2015 21:55 13,5 C 13,5 C 63 % 1000,9 hPa 0,0 mm 4,4 km/h (1 Bft) SW 225 6,6 C 11,7 km/h (2 Bft)
27.04.2015 22:00 13,4 C 13,4 C 66 % 1000,9 hPa 0,0 mm 4,9 km/h (1 Bft) W 270 7,2 C 5,7 km/h (1 Bft)
27.04.2015 22:05 13,5 C 13,4 C 68 % 1000,9 hPa 0,0 mm 7,5 km/h (2 Bft) W-SW 247 7,7 C 7,5 km/h (2 Bft)
27.04.2015 22:10 13,6 C 13,5 C 68 % 1000,9 hPa 0,0 mm 8,0 km/h (2 Bft) W 270 7,8 C 10,4 km/h (2 Bft)
27.04.2015 22:15 13,3 C 13,2 C 68 % 1001,3 hPa 0,0 mm 7,8 km/h (2 Bft) NW 315 7,5 C 9,6 km/h (2 Bft)
27.04.2015 22:20 13,2 C 13,1 C 69 % 1001,3 hPa 0,0 mm 7,5 km/h (2 Bft) NW 315 7,6 C 4,4 km/h (1 Bft)
27.04.2015 22:25 13,0 C 13,0 C 68 % 1001,3 hPa 0,0 mm 6,7 km/h (2 Bft) W-NW 292 7,2 C 3,9 km/h (1 Bft)
27.04.2015 22:30 13,0 C 12,9 C 69 % 1001,3 hPa 0,0 mm 5,7 km/h (1 Bft) W 270 7,4 C 7,0 km/h (2 Bft)
27.04.2015 22:35 13,0 C 12,9 C 70 % 1001,4 hPa 0,0 mm 5,7 km/h (1 Bft) W 270 7,7 C 5,4 km/h (1 Bft)
27.04.2015 22:40 13,0 C 12,9 C 70 % 1001,4 hPa 0,0 mm 5,4 km/h (1 Bft) W 270 7,7 C 11,7 km/h (2 Bft)
27.04.2015 22:45 13,0 C 12,9 C 70 % 1001,4 hPa 0,0 mm 5,4 km/h (1 Bft) W 270 7,7 C 10,1 km/h (2 Bft)
27.04.2015 22:50 13,0 C 12,9 C 71 % 1001,4 hPa 0,0 mm 5,4 km/h (1 Bft) W 270 7,9 C 4,7 km/h (1 Bft)
27.04.2015 22:55 12,8 C 12,7 C 72 % 1001,5 hPa 0,0 mm 3,1 km/h (1 Bft) W-SW 247 7,9 C 3,9 km/h (1 Bft)
27.04.2015 23:00 12,7 C 12,6 C 72 % 1001,5 hPa 0,0 mm 2,3 km/h (1 Bft) W-NW 292 7,8 C 0,0 km/h (0 Bft)
27.04.2015 23:05 12,8 C 12,7 C 74 % 1001,5 hPa 0,0 mm 2,8 km/h (1 Bft) O-SO 112 8,3 C 5,2 km/h (1 Bft)
27.04.2015 23:10 12,8 C 12,7 C 73 % 1001,5 hPa 0,0 mm 1,6 km/h (1 Bft) O-SO 112 8,1 C 0,0 km/h (0 Bft)
27.04.2015 23:15 12,8 C 12,7 C 74 % 1001,6 hPa 0,0 mm 0,8 km/h (0 Bft) S 180 8,3 C 3,4 km/h (1 Bft)
27.04.2015 23:20 12,8 C 12,7 C 74 % 1001,6 hPa 0,0 mm 1,6 km/h (1 Bft) SW 225 8,3 C 3,6 km/h (1 Bft)
27.04.2015 23:25 12,8 C 12,7 C 73 % 1001,6 hPa 0,0 mm 1,3 km/h (1 Bft) W-SW 247 8,1 C 0,0 km/h (0 Bft)
27.04.2015 23:30 12,8 C 12,8 C 73 % 1001,6 hPa 0,0 mm 1,3 km/h (1 Bft) S 180 8,1 C 4,9 km/h (1 Bft)
27.04.2015 23:35 12,8 C 12,8 C 73 % 1001,8 hPa 0,0 mm 1,3 km/h (1 Bft) W-SW 247 8,1 C 0,0 km/h (0 Bft)
27.04.2015 23:40 12,8 C 12,8 C 74 % 1001,8 hPa 0,0 mm 1,3 km/h (1 Bft) W-SW 247 8,3 C 0,0 km/h (0 Bft)
27.04.2015 23:45 12,8 C 12,8 C 75 % 1001,8 hPa 0,0 mm 1,8 km/h (1 Bft) S 180 8,5 C 5,7 km/h (1 Bft)
27.04.2015 23:50 12,8 C 12,8 C 75 % 1001,8 hPa 0,0 mm 2,1 km/h (1 Bft) SW 225 8,5 C 0,0 km/h (0 Bft)
27.04.2015 23:55 12,7 C 12,7 C 75 % 1002,0 hPa 0,0 mm 1,8 km/h (1 Bft) W-SW 247 8,4 C 0,0 km/h (0 Bft)
_ Min-Zeit 04:40 04:45 17:05 20:10 - 19:25 - - 04:40 23:55
Minimum _ 4,9 C 4,8 C 42 % 999,7 hPa - 0,0 km/h (0 Bft) - - 1,7 C 0,0 km/h (0 Bft)
_ Max-Zeit 14:20 10:15 05:40 00:10 23:55 15:15 - - 14:35 15:15
Maximum _ 21,0 C 26,3 C 82 % 1005,1 hPa 0,0 mm 14,8 km/h
NO (3 Bft)
- - 9,8 C 29,3 km/h
NO (5 Bft)
Durchschnitt _ 13,7 C 15,3 C 62 % 1002,4 hPa #0,0 mm 4,0 km/h (1 Bft) O-NO - 6,1 C 5,2 km/h (1 Bft)